DiskSat-2

operational
NORAD ID: 67220 Int'l Des: 2025-305 Owner: STP Country: US
LEOCIRCULAR

About DiskSat-2

Description loading...

Live Position

Loading 3D Globe...

Upcoming Passes

Altitude History

Altitude vs Time

uPlot chart will show altitude changes over time

Two-Line Element Set

1 67220U 25305B 25354.24828476 .00000511 00000-0 51086-4 0 9993
2 67220 45.0108 310.7693 0004681 270.4757 89.5581 15.05702195 312
Epoch: Dec 20, 2025 • Age: 11 hours

Current Status

Altitude 560.5 km
Velocity 7.58 km/s
Sub-Earth Point -44.94°S, 128.59°W
Launch Date Dec 18, 2025
Age 2 days
Type other

Technical Details

Classification Payload
Mass 3.00 kg
Dry Mass 3.00 kg
Total Mass 3.00 kg
Length 0.03 m
Diameter 1.00 m
Span 1.00 m
Shape Cyl
Manufacturer AERO
Bus Type DiskSat
Phase Status In Orbit
Owner/State STP/US

Large Constellations

Loading constellations...